Year,Month,Day,Hour,Minute,Value (Times are PST for temperature in C)
2017,05,22,00,00,12.90
2017,05,22,00,01,12.90
2017,05,22,00,02,12.90
2017,05,22,00,03,12.90
2017,05,22,00,04,12.90
2017,05,22,00,05,12.90
2017,05,22,00,06,12.80
2017,05,22,00,07,12.80
2017,05,22,00,08,12.80
2017,05,22,00,09,12.80
2017,05,22,00,10,12.80
2017,05,22,00,11,12.70
2017,05,22,00,12,12.70
2017,05,22,00,13,12.60
2017,05,22,00,14,12.60
2017,05,22,00,15,12.60
2017,05,22,00,16,12.60
2017,05,22,00,17,12.50
2017,05,22,00,18,12.50
2017,05,22,00,19,12.50
2017,05,22,00,20,12.50
2017,05,22,00,21,12.50
2017,05,22,00,22,12.50
2017,05,22,00,23,12.50
2017,05,22,00,24,12.50
2017,05,22,00,25,12.40
2017,05,22,00,26,12.50
2017,05,22,00,27,12.50
2017,05,22,00,28,12.50
2017,05,22,00,29,12.50
2017,05,22,00,30,12.50
2017,05,22,00,31,12.50
2017,05,22,00,32,12.50
2017,05,22,00,33,12.50
2017,05,22,00,34,12.50
2017,05,22,00,35,12.50
2017,05,22,00,36,12.50
2017,05,22,00,37,12.50
2017,05,22,00,38,12.50
2017,05,22,00,39,12.50
2017,05,22,00,40,12.50
2017,05,22,00,41,12.50
2017,05,22,00,42,12.50
2017,05,22,00,43,12.60
2017,05,22,00,44,12.60
2017,05,22,00,45,12.60
2017,05,22,00,46,12.60
2017,05,22,00,47,12.60
2017,05,22,00,48,12.60
2017,05,22,00,49,12.60
2017,05,22,00,50,12.60
2017,05,22,00,51,12.60
2017,05,22,00,52,12.70
2017,05,22,00,53,12.70
2017,05,22,00,54,12.70
2017,05,22,00,55,12.70
2017,05,22,00,56,12.70
2017,05,22,00,57,12.70
2017,05,22,00,58,12.80
2017,05,22,00,59,12.80
2017,05,22,01,00,12.80
2017,05,22,01,01,12.80
2017,05,22,01,02,12.80
2017,05,22,01,03,12.80
2017,05,22,01,04,12.80
2017,05,22,01,05,12.80
2017,05,22,01,06,12.80
2017,05,22,01,07,12.80
2017,05,22,01,08,12.80
2017,05,22,01,09,12.80
2017,05,22,01,10,12.80
2017,05,22,01,11,12.80
2017,05,22,01,12,12.80
2017,05,22,01,13,12.80
2017,05,22,01,14,12.80
2017,05,22,01,15,12.80
2017,05,22,01,16,12.80
2017,05,22,01,17,12.80
2017,05,22,01,18,12.80
2017,05,22,01,19,12.80
2017,05,22,01,20,12.80
2017,05,22,01,21,12.80
2017,05,22,01,22,12.80
2017,05,22,01,23,12.80
2017,05,22,01,24,12.70
2017,05,22,01,25,12.70
2017,05,22,01,26,12.70
2017,05,22,01,27,12.60
2017,05,22,01,28,12.60
2017,05,22,01,29,12.60
2017,05,22,01,30,12.50
2017,05,22,01,31,12.50
2017,05,22,01,32,12.40
2017,05,22,01,33,12.40
2017,05,22,01,34,12.30
2017,05,22,01,35,12.30
2017,05,22,01,36,12.30
2017,05,22,01,37,12.20
2017,05,22,01,38,12.10
2017,05,22,01,39,12.10
2017,05,22,01,40,12.00
2017,05,22,01,41,11.90
2017,05,22,01,42,11.90
2017,05,22,01,43,11.80
2017,05,22,01,44,11.80
2017,05,22,01,45,11.80
2017,05,22,01,46,11.80
2017,05,22,01,47,11.70
2017,05,22,01,48,11.70
2017,05,22,01,49,11.70
2017,05,22,01,50,11.70
2017,05,22,01,51,11.70
2017,05,22,01,52,11.70
2017,05,22,01,53,11.70
2017,05,22,01,54,11.70
2017,05,22,01,55,11.70
2017,05,22,01,56,11.70
2017,05,22,01,57,11.70
2017,05,22,01,58,11.70
2017,05,22,01,59,11.70
2017,05,22,02,00,11.70
2017,05,22,02,01,11.70
2017,05,22,02,02,11.70
2017,05,22,02,03,11.70
2017,05,22,02,04,11.70
2017,05,22,02,05,11.70
2017,05,22,02,06,11.70
2017,05,22,02,07,11.70
2017,05,22,02,08,11.70
2017,05,22,02,09,11.70
2017,05,22,02,10,11.70
2017,05,22,02,11,11.70
2017,05,22,02,12,11.60
2017,05,22,02,13,11.60
2017,05,22,02,14,11.60
2017,05,22,02,15,11.60
2017,05,22,02,16,11.60
2017,05,22,02,17,11.60
2017,05,22,02,18,11.60
2017,05,22,02,19,11.60
2017,05,22,02,20,11.60
2017,05,22,02,21,11.50
2017,05,22,02,22,11.40
2017,05,22,02,23,11.40
2017,05,22,02,24,11.40
2017,05,22,02,25,11.40
2017,05,22,02,26,11.40
2017,05,22,02,27,11.40
2017,05,22,02,28,11.40
2017,05,22,02,29,11.40
2017,05,22,02,30,11.40
2017,05,22,02,31,11.40
2017,05,22,02,32,11.40
2017,05,22,02,33,11.40
2017,05,22,02,34,11.40
2017,05,22,02,35,11.40
2017,05,22,02,36,11.40
2017,05,22,02,37,11.40
2017,05,22,02,38,11.40
2017,05,22,02,39,11.40
2017,05,22,02,40,11.40
2017,05,22,02,41,11.40
2017,05,22,02,42,11.40
2017,05,22,02,43,11.40
2017,05,22,02,44,11.40
2017,05,22,02,45,11.40
2017,05,22,02,46,11.40
2017,05,22,02,47,11.40
2017,05,22,02,48,11.40
2017,05,22,02,49,11.40
2017,05,22,02,50,11.40
2017,05,22,02,51,11.30
2017,05,22,02,52,11.30
2017,05,22,02,53,11.30
2017,05,22,02,54,11.30
2017,05,22,02,55,11.30
2017,05,22,02,56,11.30
2017,05,22,02,57,11.30
2017,05,22,02,58,11.30
2017,05,22,02,59,11.30
2017,05,22,03,00,11.30
2017,05,22,03,01,11.30
2017,05,22,03,02,11.30
2017,05,22,03,03,11.30
2017,05,22,03,04,11.30
2017,05,22,03,05,11.30
2017,05,22,03,06,11.30
2017,05,22,03,07,11.30
2017,05,22,03,08,11.30
2017,05,22,03,09,11.30
2017,05,22,03,10,11.30
2017,05,22,03,11,11.30
2017,05,22,03,12,11.30
2017,05,22,03,13,11.30
2017,05,22,03,14,11.30
2017,05,22,03,15,11.30
2017,05,22,03,16,11.30
2017,05,22,03,17,11.30
2017,05,22,03,18,11.30
2017,05,22,03,19,11.30
2017,05,22,03,20,11.30
2017,05,22,03,21,11.30
2017,05,22,03,22,11.30
2017,05,22,03,23,11.40
2017,05,22,03,24,11.40
2017,05,22,03,25,11.40
2017,05,22,03,26,11.40
2017,05,22,03,27,11.40
2017,05,22,03,28,11.40
2017,05,22,03,29,11.40
2017,05,22,03,30,11.40
2017,05,22,03,31,11.40
2017,05,22,03,32,11.40
2017,05,22,03,33,11.40
2017,05,22,03,34,11.40
2017,05,22,03,35,11.40
2017,05,22,03,36,11.40
2017,05,22,03,37,11.40
2017,05,22,03,38,11.40
2017,05,22,03,39,11.40
2017,05,22,03,40,11.40
2017,05,22,03,41,11.50
2017,05,22,03,42,11.60
2017,05,22,03,43,11.60
2017,05,22,03,44,11.60
2017,05,22,03,45,11.60
2017,05,22,03,46,11.60
2017,05,22,03,47,11.70
2017,05,22,03,48,11.70
2017,05,22,03,49,11.70
2017,05,22,03,50,11.70
2017,05,22,03,51,11.70
2017,05,22,03,52,11.70
2017,05,22,03,53,11.70
2017,05,22,03,54,11.70
2017,05,22,03,55,11.70
2017,05,22,03,56,11.70
2017,05,22,03,57,11.70
2017,05,22,03,58,11.60
2017,05,22,03,59,11.60
2017,05,22,04,00,11.60
2017,05,22,04,01,11.60
2017,05,22,04,02,11.60
2017,05,22,04,03,11.60
2017,05,22,04,04,11.60
2017,05,22,04,05,11.60
2017,05,22,04,06,11.60
2017,05,22,04,07,11.60
2017,05,22,04,08,11.60
2017,05,22,04,09,11.60
2017,05,22,04,10,11.60
2017,05,22,04,11,11.60
2017,05,22,04,12,11.60
2017,05,22,04,13,11.60
2017,05,22,04,14,11.60
2017,05,22,04,15,11.60
2017,05,22,04,16,11.60
2017,05,22,04,17,11.60
2017,05,22,04,18,11.60
2017,05,22,04,19,11.60
2017,05,22,04,20,11.60
2017,05,22,04,21,11.60
2017,05,22,04,22,11.60
2017,05,22,04,23,11.60
2017,05,22,04,24,11.60
2017,05,22,04,25,11.70
2017,05,22,04,26,11.70
2017,05,22,04,27,11.70
2017,05,22,04,28,11.70
2017,05,22,04,29,11.80
2017,05,22,04,30,11.80
2017,05,22,04,31,11.80
2017,05,22,04,32,11.80
2017,05,22,04,33,11.80
2017,05,22,04,34,11.80
2017,05,22,04,35,11.80
2017,05,22,04,36,11.80
2017,05,22,04,37,11.80
2017,05,22,04,38,11.80
2017,05,22,04,39,11.80
2017,05,22,04,40,11.80
2017,05,22,04,41,11.80
2017,05,22,04,42,11.80
2017,05,22,04,43,11.80
2017,05,22,04,44,11.80
2017,05,22,04,45,11.80
2017,05,22,04,46,11.80
2017,05,22,04,47,11.80
2017,05,22,04,48,11.80
2017,05,22,04,49,11.80
2017,05,22,04,50,11.80
2017,05,22,04,51,11.80
2017,05,22,04,52,11.80
2017,05,22,04,53,11.80
2017,05,22,04,54,11.80
2017,05,22,04,55,11.80
2017,05,22,04,56,11.80
2017,05,22,04,57,11.80
2017,05,22,04,58,11.80
2017,05,22,04,59,11.80
2017,05,22,05,00,11.80
2017,05,22,05,01,11.80
2017,05,22,05,02,11.80
2017,05,22,05,03,11.80
2017,05,22,05,04,11.80
2017,05,22,05,05,11.80
2017,05,22,05,06,11.80
2017,05,22,05,07,11.80
2017,05,22,05,08,11.80
2017,05,22,05,09,11.90
2017,05,22,05,10,11.90
2017,05,22,05,11,12.00
2017,05,22,05,12,12.10
2017,05,22,05,13,12.30
2017,05,22,05,14,12.40
2017,05,22,05,15,12.40
2017,05,22,05,16,12.50
2017,05,22,05,17,12.60
2017,05,22,05,18,12.70
2017,05,22,05,19,12.80
2017,05,22,05,20,12.80
2017,05,22,05,21,12.90
2017,05,22,05,22,12.90
2017,05,22,05,23,13.00
2017,05,22,05,24,13.00
2017,05,22,05,25,13.10
2017,05,22,05,26,13.10
2017,05,22,05,27,13.20
2017,05,22,05,28,13.20
2017,05,22,05,29,13.30
2017,05,22,05,30,13.30
2017,05,22,05,31,13.40
2017,05,22,05,32,13.50
2017,05,22,05,33,13.50
2017,05,22,05,34,13.50
2017,05,22,05,35,13.60
2017,05,22,05,36,13.60
2017,05,22,05,37,13.70
2017,05,22,05,38,13.70
2017,05,22,05,39,13.70
2017,05,22,05,40,13.70
2017,05,22,05,41,13.70
2017,05,22,05,42,13.70
2017,05,22,05,43,13.70
2017,05,22,05,44,13.70
2017,05,22,05,45,13.70
2017,05,22,05,46,13.70
2017,05,22,05,47,13.70
2017,05,22,05,48,13.70
2017,05,22,05,49,13.70
2017,05,22,05,50,13.70
2017,05,22,05,51,13.70
2017,05,22,05,52,13.70
2017,05,22,05,53,13.70
2017,05,22,05,54,13.70
2017,05,22,05,55,13.70
2017,05,22,05,56,13.70
2017,05,22,05,57,13.70
2017,05,22,05,58,13.70
2017,05,22,05,59,13.70
2017,05,22,06,00,13.70
2017,05,22,06,01,13.70
2017,05,22,06,02,13.70
2017,05,22,06,03,13.70
2017,05,22,06,04,13.70
2017,05,22,06,05,13.80
2017,05,22,06,06,13.80
2017,05,22,06,07,13.80
2017,05,22,06,08,13.80
2017,05,22,06,09,13.80
2017,05,22,06,10,13.90
2017,05,22,06,11,13.90
2017,05,22,06,12,13.90
2017,05,22,06,13,13.90
2017,05,22,06,14,13.90
2017,05,22,06,15,13.90
2017,05,22,06,16,13.90
2017,05,22,06,17,13.90
2017,05,22,06,18,14.00
2017,05,22,06,19,14.00
2017,05,22,06,20,14.10
2017,05,22,06,21,14.10
2017,05,22,06,22,14.10
2017,05,22,06,23,14.10
2017,05,22,06,24,14.10
2017,05,22,06,25,14.10
2017,05,22,06,26,14.10
2017,05,22,06,27,14.10
2017,05,22,06,28,14.20
2017,05,22,06,29,14.20
2017,05,22,06,30,14.20
2017,05,22,06,31,14.20
2017,05,22,06,32,14.20
2017,05,22,06,33,14.20
2017,05,22,06,34,14.20
2017,05,22,06,35,14.20
2017,05,22,06,36,14.20
2017,05,22,06,37,14.20
2017,05,22,06,38,14.20
2017,05,22,06,39,14.10
2017,05,22,06,40,14.10
2017,05,22,06,41,14.10
2017,05,22,06,42,14.10
2017,05,22,06,43,14.10
2017,05,22,06,44,14.10
2017,05,22,06,45,14.10
2017,05,22,06,46,14.10
2017,05,22,06,47,14.10
2017,05,22,06,48,14.10
2017,05,22,06,49,14.20
2017,05,22,06,50,14.20
2017,05,22,06,51,14.20
2017,05,22,06,52,14.20
2017,05,22,06,53,14.20
2017,05,22,06,54,14.20
2017,05,22,06,55,14.20
2017,05,22,06,56,14.20
2017,05,22,06,57,14.20
2017,05,22,06,58,14.20
2017,05,22,06,59,14.20
2017,05,22,07,00,14.20
2017,05,22,07,01,14.20
2017,05,22,07,02,14.20
2017,05,22,07,03,14.20
2017,05,22,07,04,14.20
2017,05,22,07,05,14.20
2017,05,22,07,06,14.30
2017,05,22,07,07,14.30
2017,05,22,07,08,14.30
2017,05,22,07,09,14.40
2017,05,22,07,10,14.40
2017,05,22,07,11,14.40
2017,05,22,07,12,14.40
2017,05,22,07,13,14.40
2017,05,22,07,14,14.50
2017,05,22,07,15,14.50
2017,05,22,07,16,14.50
2017,05,22,07,17,14.50
2017,05,22,07,18,14.60
2017,05,22,07,19,14.60
2017,05,22,07,20,14.60
2017,05,22,07,21,14.60
2017,05,22,07,22,14.70
2017,05,22,07,23,14.70
2017,05,22,07,24,14.70
2017,05,22,07,25,14.70
2017,05,22,07,26,14.80
2017,05,22,07,27,14.80
2017,05,22,07,28,14.80
2017,05,22,07,29,14.90
2017,05,22,07,30,14.90
2017,05,22,07,31,14.90
2017,05,22,07,32,15.00
2017,05,22,07,33,15.00
2017,05,22,07,34,15.00
2017,05,22,07,35,15.00
2017,05,22,07,36,15.00
2017,05,22,07,37,15.10
2017,05,22,07,38,15.10
2017,05,22,07,39,15.10
2017,05,22,07,40,15.10
2017,05,22,07,41,15.10
2017,05,22,07,42,15.10
2017,05,22,07,43,15.10
2017,05,22,07,44,15.20
2017,05,22,07,45,15.20
2017,05,22,07,46,15.20
2017,05,22,07,47,15.20
2017,05,22,07,48,15.30
2017,05,22,07,49,15.30
2017,05,22,07,50,15.30
2017,05,22,07,51,15.30
2017,05,22,07,52,15.30
2017,05,22,07,53,15.40
2017,05,22,07,54,15.50
2017,05,22,07,55,15.50
2017,05,22,07,56,15.50
2017,05,22,07,57,15.60
2017,05,22,07,58,15.60
2017,05,22,07,59,15.60
2017,05,22,08,00,15.60
2017,05,22,08,01,15.70
2017,05,22,08,02,15.70
2017,05,22,08,03,15.70
2017,05,22,08,04,15.70
2017,05,22,08,05,15.80
2017,05,22,08,06,15.80
2017,05,22,08,07,15.80
2017,05,22,08,08,15.80
2017,05,22,08,09,15.90
2017,05,22,08,10,15.90
2017,05,22,08,11,15.90
2017,05,22,08,12,15.90
2017,05,22,08,13,15.90
2017,05,22,08,14,16.00
2017,05,22,08,15,16.10
2017,05,22,08,16,16.20
2017,05,22,08,17,16.30
2017,05,22,08,18,16.40
2017,05,22,08,19,16.40
2017,05,22,08,20,16.60
2017,05,22,08,21,16.80
2017,05,22,08,22,16.90
2017,05,22,08,23,17.00
2017,05,22,08,24,17.10
2017,05,22,08,25,17.20
2017,05,22,08,26,17.30
2017,05,22,08,27,17.40
2017,05,22,08,28,17.40
2017,05,22,08,29,17.50
2017,05,22,08,30,17.60
2017,05,22,08,31,17.70
2017,05,22,08,32,17.70
2017,05,22,08,33,17.80
2017,05,22,08,34,17.90
2017,05,22,08,35,18.00
2017,05,22,08,36,18.10
2017,05,22,08,37,18.20
2017,05,22,08,38,18.20
2017,05,22,08,39,18.40
2017,05,22,08,40,18.40
2017,05,22,08,41,18.50
2017,05,22,08,42,18.50
2017,05,22,08,43,18.50
2017,05,22,08,44,18.60
2017,05,22,08,45,18.70
2017,05,22,08,46,18.70
2017,05,22,08,47,18.80
2017,05,22,08,48,18.80
2017,05,22,08,49,18.90
2017,05,22,08,50,18.90
2017,05,22,08,51,18.90
2017,05,22,08,52,19.00
2017,05,22,08,53,19.10
2017,05,22,08,54,19.10
2017,05,22,08,55,19.20
2017,05,22,08,56,19.20
2017,05,22,08,57,19.30
2017,05,22,08,58,19.30
2017,05,22,08,59,19.30
2017,05,22,09,00,19.40
2017,05,22,09,01,19.40
2017,05,22,09,02,19.50
2017,05,22,09,03,19.50
2017,05,22,09,04,19.50
2017,05,22,09,05,19.60
2017,05,22,09,06,19.60
2017,05,22,09,07,19.70
2017,05,22,09,08,19.70
2017,05,22,09,09,19.80
2017,05,22,09,10,19.80
2017,05,22,09,11,19.80
2017,05,22,09,12,19.80
2017,05,22,09,13,19.80
2017,05,22,09,14,19.80
2017,05,22,09,15,19.80
2017,05,22,09,16,19.70
2017,05,22,09,17,19.70
2017,05,22,09,18,19.70
2017,05,22,09,19,19.60
2017,05,22,09,20,19.60
2017,05,22,09,21,19.60
2017,05,22,09,22,19.60
2017,05,22,09,23,19.60
2017,05,22,09,24,19.60
2017,05,22,09,25,19.60
2017,05,22,09,26,19.70
2017,05,22,09,27,19.70
2017,05,22,09,28,19.70
2017,05,22,09,29,19.70
2017,05,22,09,30,19.70
2017,05,22,09,31,19.70
2017,05,22,09,32,19.70
2017,05,22,09,33,19.70
2017,05,22,09,34,19.80
2017,05,22,09,35,19.80
2017,05,22,09,36,19.90
2017,05,22,09,37,19.90
2017,05,22,09,38,19.90
2017,05,22,09,39,19.90
2017,05,22,09,40,19.90
2017,05,22,09,41,20.00
2017,05,22,09,42,20.10
2017,05,22,09,43,20.20
2017,05,22,09,44,20.20
2017,05,22,09,45,20.20
2017,05,22,09,46,20.30
2017,05,22,09,47,20.40
2017,05,22,09,48,20.50
2017,05,22,09,49,20.50
2017,05,22,09,50,20.50
2017,05,22,09,51,20.60
2017,05,22,09,52,20.60
2017,05,22,09,53,20.60
2017,05,22,09,54,20.60
2017,05,22,09,55,20.60
2017,05,22,09,56,20.60
2017,05,22,09,57,20.70
2017,05,22,09,58,20.70
2017,05,22,09,59,20.70
2017,05,22,10,00,20.80
2017,05,22,10,01,20.80
2017,05,22,10,02,20.80
2017,05,22,10,03,20.80
2017,05,22,10,04,20.70
2017,05,22,10,05,20.70
2017,05,22,10,06,20.60
2017,05,22,10,07,20.50
2017,05,22,10,08,20.50
2017,05,22,10,09,20.50
2017,05,22,10,10,20.50
2017,05,22,10,11,20.50
2017,05,22,10,12,20.50
2017,05,22,10,13,20.50
2017,05,22,10,14,20.50
2017,05,22,10,15,20.50
2017,05,22,10,16,20.60
2017,05,22,10,17,20.60
2017,05,22,10,18,20.60
2017,05,22,10,19,20.60
2017,05,22,10,20,20.60
2017,05,22,10,21,20.60
2017,05,22,10,22,20.60
2017,05,22,10,23,20.60
2017,05,22,10,24,20.60
2017,05,22,10,25,20.70
2017,05,22,10,26,20.70
2017,05,22,10,27,20.80
2017,05,22,10,28,20.90
2017,05,22,10,29,20.90
2017,05,22,10,30,20.90
2017,05,22,10,31,21.00
2017,05,22,10,32,21.00
2017,05,22,10,33,21.00
2017,05,22,10,34,21.10
2017,05,22,10,35,21.10
2017,05,22,10,36,21.10
2017,05,22,10,37,21.20
2017,05,22,10,38,21.30
2017,05,22,10,39,21.30
2017,05,22,10,40,21.30
2017,05,22,10,41,21.30
2017,05,22,10,42,21.30
2017,05,22,10,43,21.40
2017,05,22,10,44,21.40
2017,05,22,10,45,21.60
2017,05,22,10,46,21.60
2017,05,22,10,47,21.70
2017,05,22,10,48,21.80
2017,05,22,10,49,21.90
2017,05,22,10,50,22.00
2017,05,22,10,51,22.10
2017,05,22,10,52,22.10
2017,05,22,10,53,22.20
2017,05,22,10,54,22.20
2017,05,22,10,55,22.20
2017,05,22,10,56,22.20
2017,05,22,10,57,22.30
2017,05,22,10,58,22.30
2017,05,22,10,59,22.30
2017,05,22,11,00,22.40
2017,05,22,11,01,22.40
2017,05,22,11,02,22.50
2017,05,22,11,03,22.50
2017,05,22,11,04,22.50
2017,05,22,11,05,22.50
2017,05,22,11,06,22.50
2017,05,22,11,07,22.50
2017,05,22,11,08,22.60
2017,05,22,11,09,22.60
2017,05,22,11,10,22.70
2017,05,22,11,11,22.60
2017,05,22,11,12,22.60
2017,05,22,11,13,22.60
2017,05,22,11,14,22.60
2017,05,22,11,15,22.50
2017,05,22,11,16,22.50
2017,05,22,11,17,22.50
2017,05,22,11,18,22.50
2017,05,22,11,19,22.50
2017,05,22,11,20,22.50
2017,05,22,11,21,22.40
2017,05,22,11,22,22.30
2017,05,22,11,23,22.30
2017,05,22,11,24,22.30
2017,05,22,11,25,22.30
2017,05,22,11,26,22.30
2017,05,22,11,27,22.40
2017,05,22,11,28,22.40
2017,05,22,11,29,22.50
2017,05,22,11,30,22.50
2017,05,22,11,31,22.60
2017,05,22,11,32,22.70
2017,05,22,11,33,22.80
2017,05,22,11,34,22.80
2017,05,22,11,35,22.90
2017,05,22,11,36,22.90
2017,05,22,11,37,22.90
2017,05,22,11,38,22.90
2017,05,22,11,39,23.00
2017,05,22,11,40,23.10
2017,05,22,11,41,23.20
2017,05,22,11,42,23.30
2017,05,22,11,43,23.30
2017,05,22,11,44,23.40
2017,05,22,11,45,23.60
2017,05,22,11,46,23.60
2017,05,22,11,47,23.70
2017,05,22,11,48,23.70
2017,05,22,11,49,23.70
2017,05,22,11,50,23.70
2017,05,22,11,51,23.70
2017,05,22,11,52,23.70
2017,05,22,11,53,23.70
2017,05,22,11,54,23.70
2017,05,22,11,55,23.70
2017,05,22,11,56,23.70
2017,05,22,11,57,23.70
2017,05,22,11,58,23.70
2017,05,22,11,59,23.80
2017,05,22,12,00,23.90
2017,05,22,12,01,24.00
2017,05,22,12,02,24.10
2017,05,22,12,03,24.10
2017,05,22,12,04,24.30
2017,05,22,12,05,24.30
2017,05,22,12,06,24.30
2017,05,22,12,07,24.40
2017,05,22,12,08,24.40
2017,05,22,12,09,24.40
2017,05,22,12,10,24.40
2017,05,22,12,11,24.40
2017,05,22,12,12,24.40
2017,05,22,12,13,24.50
2017,05,22,12,14,24.50
2017,05,22,12,15,24.50
2017,05,22,12,16,24.60
2017,05,22,12,17,24.60
2017,05,22,12,18,24.50
2017,05,22,12,19,24.50
2017,05,22,12,20,24.50
2017,05,22,12,21,24.50
2017,05,22,12,22,24.40
2017,05,22,12,23,24.40
2017,05,22,12,24,24.30
2017,05,22,12,25,24.20
2017,05,22,12,26,24.10
2017,05,22,12,27,24.10
2017,05,22,12,28,24.10
2017,05,22,12,29,23.90
2017,05,22,12,30,23.90
2017,05,22,12,31,23.90
2017,05,22,12,32,23.90
2017,05,22,12,33,23.90
2017,05,22,12,34,23.90
2017,05,22,12,35,23.90
2017,05,22,12,36,23.90
2017,05,22,12,37,24.00
2017,05,22,12,38,24.10
2017,05,22,12,39,24.10
2017,05,22,12,40,24.20
2017,05,22,12,41,24.20
2017,05,22,12,42,24.30
2017,05,22,12,43,24.40
2017,05,22,12,44,24.40
2017,05,22,12,45,24.50
2017,05,22,12,46,24.40
2017,05,22,12,47,24.50
2017,05,22,12,48,24.50
2017,05,22,12,49,24.40
2017,05,22,12,50,24.30
2017,05,22,12,51,24.10
2017,05,22,12,52,24.10
2017,05,22,12,53,24.10
2017,05,22,12,54,24.10
2017,05,22,12,55,24.10
2017,05,22,12,56,24.10
2017,05,22,12,57,24.00
2017,05,22,12,58,24.00
2017,05,22,12,59,24.10
2017,05,22,13,00,24.10
2017,05,22,13,01,24.10
2017,05,22,13,02,24.10
2017,05,22,13,03,24.20
2017,05,22,13,04,24.30
2017,05,22,13,05,24.20
2017,05,22,13,06,24.10
2017,05,22,13,07,24.10
2017,05,22,13,08,24.10
2017,05,22,13,09,24.10
2017,05,22,13,10,24.10
2017,05,22,13,11,24.10
2017,05,22,13,12,24.10
2017,05,22,13,13,24.10
2017,05,22,13,14,24.10
2017,05,22,13,15,24.10
2017,05,22,13,16,24.10
2017,05,22,13,17,24.20
2017,05,22,13,18,24.30
2017,05,22,13,19,24.40
2017,05,22,13,20,24.50
2017,05,22,13,21,24.50
2017,05,22,13,22,24.60
2017,05,22,13,23,24.70
2017,05,22,13,24,24.80
2017,05,22,13,25,24.80
2017,05,22,13,26,24.80
2017,05,22,13,27,24.80
2017,05,22,13,28,24.80
2017,05,22,13,29,24.90
2017,05,22,13,30,25.00
2017,05,22,13,31,25.10
2017,05,22,13,32,25.20
2017,05,22,13,33,25.10
2017,05,22,13,34,25.10
2017,05,22,13,35,25.00
2017,05,22,13,36,25.00
2017,05,22,13,37,25.00
2017,05,22,13,38,25.00
2017,05,22,13,39,24.90
2017,05,22,13,40,24.80
2017,05,22,13,41,24.80
2017,05,22,13,42,24.90
2017,05,22,13,43,24.80
2017,05,22,13,44,24.90
2017,05,22,13,45,24.90
2017,05,22,13,46,25.00
2017,05,22,13,47,25.00
2017,05,22,13,48,25.10
2017,05,22,13,49,25.10
2017,05,22,13,50,25.20
2017,05,22,13,51,25.20
2017,05,22,13,52,25.20
2017,05,22,13,53,25.10
2017,05,22,13,54,25.10
2017,05,22,13,55,25.20
2017,05,22,13,56,25.20
2017,05,22,13,57,25.20
2017,05,22,13,58,25.20
2017,05,22,13,59,25.10
2017,05,22,14,00,25.10
2017,05,22,14,01,25.10
2017,05,22,14,02,25.20
2017,05,22,14,03,25.20
2017,05,22,14,04,25.10
2017,05,22,14,05,25.10
2017,05,22,14,06,25.20
2017,05,22,14,07,25.20
2017,05,22,14,08,25.30
2017,05,22,14,09,25.30
2017,05,22,14,10,25.30
2017,05,22,14,11,25.30
2017,05,22,14,12,25.40
2017,05,22,14,13,25.50
2017,05,22,14,14,25.60
2017,05,22,14,15,25.60
2017,05,22,14,16,25.50
2017,05,22,14,17,25.50
2017,05,22,14,18,25.60
2017,05,22,14,19,25.60
2017,05,22,14,20,25.60
2017,05,22,14,21,25.70
2017,05,22,14,22,25.70
2017,05,22,14,23,25.80
2017,05,22,14,24,25.80
2017,05,22,14,25,25.80
2017,05,22,14,26,25.90
2017,05,22,14,27,25.90
2017,05,22,14,28,26.00
2017,05,22,14,29,26.00
2017,05,22,14,30,26.00
2017,05,22,14,31,25.90
2017,05,22,14,32,26.00
2017,05,22,14,33,25.90
2017,05,22,14,34,25.80
2017,05,22,14,35,25.80
2017,05,22,14,36,25.60
2017,05,22,14,37,25.60
2017,05,22,14,38,25.60
2017,05,22,14,39,25.60
2017,05,22,14,40,25.60
2017,05,22,14,41,25.70
2017,05,22,14,42,25.80
2017,05,22,14,43,25.80
2017,05,22,14,44,25.80
2017,05,22,14,45,25.90
2017,05,22,14,46,26.00
2017,05,22,14,47,26.10
2017,05,22,14,48,26.20
2017,05,22,14,49,26.30
2017,05,22,14,50,26.40
2017,05,22,14,51,26.50
2017,05,22,14,52,26.60
2017,05,22,14,53,26.60
2017,05,22,14,54,26.60
2017,05,22,14,55,26.60
2017,05,22,14,56,26.60
2017,05,22,14,57,26.60
2017,05,22,14,58,26.60
2017,05,22,14,59,26.60
2017,05,22,15,00,26.60
2017,05,22,15,01,26.60
2017,05,22,15,02,26.60
2017,05,22,15,03,26.60
2017,05,22,15,04,26.70
2017,05,22,15,05,26.70
2017,05,22,15,06,26.70
2017,05,22,15,07,26.70
2017,05,22,15,08,26.80
2017,05,22,15,09,26.70
2017,05,22,15,10,26.70
2017,05,22,15,11,26.60
2017,05,22,15,12,26.60
2017,05,22,15,13,26.60
2017,05,22,15,14,26.60
2017,05,22,15,15,26.50
2017,05,22,15,16,26.40
2017,05,22,15,17,26.40
2017,05,22,15,18,26.40
2017,05,22,15,19,26.30
2017,05,22,15,20,26.30
2017,05,22,15,21,26.40
2017,05,22,15,22,26.40
2017,05,22,15,23,26.50
2017,05,22,15,24,26.60
2017,05,22,15,25,26.60
2017,05,22,15,26,26.70
2017,05,22,15,27,26.80
2017,05,22,15,28,26.90
2017,05,22,15,29,27.00
2017,05,22,15,30,27.10
2017,05,22,15,31,27.10
2017,05,22,15,32,27.10
2017,05,22,15,33,27.20
2017,05,22,15,34,27.20
2017,05,22,15,35,27.20
2017,05,22,15,36,27.20
2017,05,22,15,37,27.10
2017,05,22,15,38,27.10
2017,05,22,15,39,27.10
2017,05,22,15,40,27.10
2017,05,22,15,41,27.10
2017,05,22,15,42,27.10
2017,05,22,15,43,27.00
2017,05,22,15,44,26.90
2017,05,22,15,45,26.90
2017,05,22,15,46,26.70
2017,05,22,15,47,26.70
2017,05,22,15,48,26.70
2017,05,22,15,49,26.60
2017,05,22,15,50,26.60
2017,05,22,15,51,26.50
2017,05,22,15,52,26.40
2017,05,22,15,53,26.40
2017,05,22,15,54,26.40
2017,05,22,15,55,26.40
2017,05,22,15,56,26.40
2017,05,22,15,57,26.30
2017,05,22,15,58,26.30
2017,05,22,15,59,26.20
2017,05,22,16,00,26.20
2017,05,22,16,01,26.10
2017,05,22,16,02,26.10
2017,05,22,16,03,26.00
2017,05,22,16,04,26.00
2017,05,22,16,05,25.90
2017,05,22,16,06,25.90
2017,05,22,16,07,25.90
2017,05,22,16,08,25.80
2017,05,22,16,09,25.80
2017,05,22,16,10,25.80
2017,05,22,16,11,25.70
2017,05,22,16,12,25.70
2017,05,22,16,13,25.70
2017,05,22,16,14,25.70
2017,05,22,16,15,25.60
2017,05,22,16,16,25.60
2017,05,22,16,17,25.60
2017,05,22,16,18,25.50
2017,05,22,16,19,25.50
2017,05,22,16,20,25.50
2017,05,22,16,21,25.40
2017,05,22,16,22,25.40
2017,05,22,16,23,25.40
2017,05,22,16,24,25.40
2017,05,22,16,25,25.40
2017,05,22,16,26,25.40
2017,05,22,16,27,25.30
2017,05,22,16,28,25.30
2017,05,22,16,29,25.30
2017,05,22,16,30,25.30
2017,05,22,16,31,25.30
2017,05,22,16,32,25.20
2017,05,22,16,33,25.20
2017,05,22,16,34,25.20
2017,05,22,16,35,25.20
2017,05,22,16,36,25.10
2017,05,22,16,37,25.10
2017,05,22,16,38,25.00
2017,05,22,16,39,25.00
2017,05,22,16,40,25.00
2017,05,22,16,41,25.00
2017,05,22,16,42,24.90
2017,05,22,16,43,24.90
2017,05,22,16,44,24.90
2017,05,22,16,45,24.90
2017,05,22,16,46,24.90
2017,05,22,16,47,24.80
2017,05,22,16,48,24.80
2017,05,22,16,49,24.80
2017,05,22,16,50,24.80
2017,05,22,16,51,24.70
2017,05,22,16,52,24.70
2017,05,22,16,53,24.70
2017,05,22,16,54,24.70
2017,05,22,16,55,24.70
2017,05,22,16,56,24.70
2017,05,22,16,57,24.70
2017,05,22,16,58,24.70
2017,05,22,16,59,24.70
2017,05,22,17,00,24.70
2017,05,22,17,01,24.70
2017,05,22,17,02,24.70
2017,05,22,17,03,24.70
2017,05,22,17,04,24.70
2017,05,22,17,05,24.70
2017,05,22,17,06,24.70
2017,05,22,17,07,24.70
2017,05,22,17,08,24.70
2017,05,22,17,09,24.70
2017,05,22,17,10,24.70
2017,05,22,17,11,24.70
2017,05,22,17,12,24.70
2017,05,22,17,13,24.60
2017,05,22,17,14,24.60
2017,05,22,17,15,24.60
2017,05,22,17,16,24.50
2017,05,22,17,17,24.50
2017,05,22,17,18,24.50
2017,05,22,17,19,24.50